• In Uzbekistan
  • List of Countries
  • For 7 days
  • Water Temperature
  • Satellite Maps
  • Weather Map
  • Weather Widgets
  • user-avatar
    Login

    Hourly Weather Verhojansk

    Today, 19 July, Friday

    Time Temperature Precipitation Wind Pressure Humidity
    00:00 +2°C° 0 mm 7 mps 724 mmHg 75%
    01:00 0°C° 0 mm 7 mps 725 mmHg 79%
    02:00 0°C° 0 mm 7 mps 725 mmHg 83%
    03:00 +1°C° 0 mm 5 mps 725 mmHg 89%
    04:00 +2°C° 0 mm 7 mps 725 mmHg 81%
    05:00 +2°C° 0 mm 9 mps 726 mmHg 73%
    06:00 +3°C° 0 mm 11 mps 726 mmHg 66%
    07:00 +4°C° 0 mm 11 mps 726 mmHg 64%
    08:00 +4°C° 0 mm 11 mps 726 mmHg 62%
    09:00 +5°C° 0 mm 10 mps 726 mmHg 63%
    10:00 +6°C° 0 mm 11 mps 726 mmHg 60%
    11:00 +7°C° 0 mm 11 mps 726 mmHg 56%
    12:00 +7°C° 0 mm 11 mps 726 mmHg 52%
    13:00 +8°C° 0 mm 11 mps 726 mmHg 51%
    14:00 +8°C° 0 mm 11 mps 726 mmHg 50%
    15:00 +8°C° 0 mm 11 mps 726 mmHg 48%
    16:00 +8°C° 0 mm 11 mps 726 mmHg 50%
    17:00 +8°C° 0 mm 11 mps 726 mmHg 51%
    18:00 +7°C° 0 mm 11 mps 726 mmHg 52%
    19:00 +7°C° 0 mm 10 mps 727 mmHg 54%
    20:00 +6°C° 0 mm 9 mps 727 mmHg 57%
    21:00 +6°C° 0 mm 9 mps 728 mmHg 60%
    22:00 +4°C° 0 mm 7 mps 728 mmHg 68%
    23:00 +3°C° 0 mm 6 mps 728 mmHg 77%

    Tomorrow, 20 July, Saturday

    Time Temperature Precipitation Wind Pressure Humidity
    00:00 +1°C° 0 mm 5 mps 728 mmHg 86%
    01:00 +1°C° 0 mm 4 mps 728 mmHg 87%
    02:00 0°C° 0 mm 4 mps 728 mmHg 89%
    03:00 +1°C° 0 mm 3 mps 729 mmHg 90%
    04:00 +1°C° 0 mm 4 mps 729 mmHg 84%
    05:00 +2°C° 0 mm 5 mps 729 mmHg 79%
    06:00 +3°C° 0 mm 6 mps 729 mmHg 73%
    07:00 +4°C° 0 mm 6 mps 729 mmHg 67%
    08:00 +5°C° 0 mm 6 mps 729 mmHg 62%
    09:00 +7°C° 0 mm 5 mps 729 mmHg 57%
    10:00 +8°C° 0 mm 5 mps 729 mmHg 53%
    11:00 +9°C° 0 mm 5 mps 729 mmHg 49%
    12:00 +11°C° 0 mm 4 mps 729 mmHg 45%
    13:00 +12°C° 0 mm 4 mps 728 mmHg 42%
    14:00 +13°C° 0 mm 4 mps 728 mmHg 39%
    15:00 +13°C° 0 mm 3 mps 727 mmHg 37%
    16:00 +14°C° 0 mm 3 mps 727 mmHg 34%
    17:00 +16°C° 0 mm 3 mps 727 mmHg 32%
    18:00 +16°C° 0 mm 3 mps 727 mmHg 30%
    19:00 +14°C° 0 mm 2 mps 727 mmHg 37%
    20:00 +13°C° 0 mm 1 mps 727 mmHg 45%
    21:00 +10°C° 0 mm 0 mps 727 mmHg 52%
    22:00 +9°C° 0 mm 0 mps 727 mmHg 55%
    23:00 +8°C° 0 mm 1 mps 727 mmHg 59%

    Day after tomorrow, 21 July, Sunday

    Time Temperature Precipitation Wind Pressure Humidity
    00:00 +7°C° 0 mm 1 mps 727 mmHg 62%
    01:00 +7°C° 0 mm 2 mps 727 mmHg 59%
    02:00 +7°C° 0 mm 2 mps 727 mmHg 55%
    03:00 +8°C° 0 mm 3 mps 727 mmHg 51%
    04:00 +9°C° 0 mm 3 mps 726 mmHg 49%
    05:00 +10°C° 0 mm 4 mps 726 mmHg 47%
    06:00 +12°C° 0 mm 4 mps 726 mmHg 45%
    07:00 +13°C° 0 mm 4 mps 725 mmHg 43%
    08:00 +15°C° 0 mm 4 mps 725 mmHg 40%
    09:00 +17°C° 0 mm 4 mps 725 mmHg 38%
    10:00 +19°C° 0 mm 5 mps 724 mmHg 34%
    11:00 +21°C° 0 mm 5 mps 724 mmHg 31%
    12:00 +23°C° 0 mm 6 mps 724 mmHg 27%
    13:00 +22°C° 0 mm 6 mps 723 mmHg 29%
    14:00 +22°C° 0 mm 7 mps 723 mmHg 32%
    15:00 +21°C° 0 mm 7 mps 722 mmHg 34%
    16:00 +20°C° 0 mm 7 mps 723 mmHg 41%
    17:00 +17°C° 0 mm 7 mps 723 mmHg 47%
    18:00 +15°C° 0 mm 7 mps 723 mmHg 53%
    19:00 +12°C° 0 mm 7 mps 724 mmHg 53%
    20:00 +9°C° 0 mm 7 mps 725 mmHg 52%
    21:00 +6°C° 0 mm 7 mps 725 mmHg 52%
    22:00 +4°C° 0 mm 6 mps 726 mmHg 56%
    23:00 +2°C° 0 mm 5 mps 727 mmHg 61%

    22 July, Monday

    Time Temperature Precipitation Wind Pressure Humidity
    00:00 0°C° 0 mm 4 mps 728 mmHg 66%
    01:00 0°C° 0 mm 3 mps 729 mmHg 70%
    02:00 -1°C° 0 mm 2 mps 730 mmHg 74%
    03:00 -2°C° 0 mm 2 mps 730 mmHg 78%
    04:00 -1°C° 0 mm 2 mps 730 mmHg 72%
    05:00 +1°C° 0 mm 3 mps 731 mmHg 67%
    06:00 +2°C° 0 mm 3 mps 731 mmHg 61%
    07:00 +3°C° 0 mm 3 mps 731 mmHg 57%
    08:00 +4°C° 0 mm 3 mps 731 mmHg 52%
    09:00 +5°C° 0 mm 3 mps 730 mmHg 48%
    10:00 +8°C° 0 mm 3 mps 730 mmHg 45%
    11:00 +9°C° 0 mm 3 mps 730 mmHg 41%
    12:00 +10°C° 0 mm 2 mps 729 mmHg 38%
    13:00 +12°C° 0 mm 2 mps 729 mmHg 36%
    14:00 +13°C° 0 mm 2 mps 728 mmHg 33%
    15:00 +14°C° 0 mm 2 mps 728 mmHg 31%
    16:00 +15°C° 0 mm 2 mps 728 mmHg 30%
    17:00 +15°C° 0 mm 1 mps 727 mmHg 30%
    18:00 +15°C° 0 mm 1 mps 727 mmHg 29%
    19:00 +14°C° 0 mm 1 mps 727 mmHg 36%
    20:00 +12°C° 0 mm 1 mps 727 mmHg 43%
    21:00 +9°C° 0 mm 0 mps 726 mmHg 50%
    22:00 +9°C° 0 mm 1 mps 726 mmHg 53%
    23:00 +7°C° 0 mm 1 mps 726 mmHg 57%

    23 July, Tuesday

    Time Temperature Precipitation Wind Pressure Humidity
    00:00 +6°C° 0 mm 1 mps 726 mmHg 60%
    01:00 +5°C° 0 mm 2 mps 725 mmHg 58%
    02:00 +6°C° 0 mm 2 mps 725 mmHg 55%
    03:00 +6°C° 0 mm 2 mps 725 mmHg 52%
    04:00 +8°C° 0 mm 2 mps 725 mmHg 48%
    05:00 +10°C° 0 mm 3 mps 725 mmHg 44%
    06:00 +12°C° 0 mm 3 mps 725 mmHg 39%
    07:00 +13°C° 0 mm 3 mps 724 mmHg 37%
    08:00 +16°C° 0 mm 3 mps 724 mmHg 34%
    09:00 +17°C° 0 mm 4 mps 724 mmHg 32%
    10:00 +19°C° 0 mm 3 mps 724 mmHg 30%
    11:00 +21°C° 0 mm 3 mps 723 mmHg 29%
    12:00 +22°C° 0 mm 3 mps 723 mmHg 27%
    13:00 +24°C° 0 mm 3 mps 722 mmHg 28%
    14:00 +25°C° 0 mm 2 mps 722 mmHg 28%
    15:00 +26°C° 0 mm 2 mps 722 mmHg 29%
    16:00 +25°C° 0 mm 2 mps 722 mmHg 33%
    17:00 +24°C° 0 mm 1 mps 721 mmHg 38%
    18:00 +23°C° 0 mm 1 mps 721 mmHg 43%
    19:00 +21°C° 0 mm 2 mps 721 mmHg 43%
    20:00 +21°C° 0 mm 2 mps 721 mmHg 44%
    21:00 +21°C° 0 mm 3 mps 721 mmHg 44%
    22:00 +19°C° 0 mm 3 mps 721 mmHg 50%
    23:00 +17°C° 0 mm 2 mps 721 mmHg 56%

    24 July, Wednesday

    Time Temperature Precipitation Wind Pressure Humidity
    00:00 +16°C° 0 mm 2 mps 720 mmHg 63%
    01:00 +14°C° 0 mm 2 mps 720 mmHg 69%
    02:00 +12°C° 0 mm 3 mps 720 mmHg 76%
    03:00 +11°C° 0 mm 3 mps 721 mmHg 82%
    04:00 +11°C° 0 mm 3 mps 721 mmHg 82%
    05:00 +10°C° 0 mm 3 mps 721 mmHg 82%
    06:00 +10°C° 0 mm 3 mps 721 mmHg 82%
    07:00 +11°C° 0 mm 3 mps 721 mmHg 78%
    08:00 +12°C° 0 mm 3 mps 722 mmHg 73%
    09:00 +12°C° 0 mm 3 mps 722 mmHg 68%
    10:00 +12°C° 0.1 mm 3 mps 721 mmHg 70%
    11:00 +11°C° 0.1 mm 3 mps 721 mmHg 72%
    12:00 +11°C° 0.1 mm 3 mps 721 mmHg 74%
    13:00 +13°C° 0 mm 2 mps 721 mmHg 71%
    14:00 +14°C° 0 mm 1 mps 720 mmHg 67%
    15:00 +14°C° 0 mm 0 mps 720 mmHg 64%
    16:00 +16°C° 0 mm 1 mps 720 mmHg 62%
    17:00 +16°C° 0 mm 1 mps 720 mmHg 59%
    18:00 +17°C° 0 mm 2 mps 720 mmHg 57%
    19:00 +16°C° 0 mm 2 mps 720 mmHg 63%
    20:00 +13°C° 0 mm 3 mps 720 mmHg 70%
    21:00 +12°C° 0 mm 3 mps 720 mmHg 77%
    22:00 +11°C° 0.1 mm 3 mps 719 mmHg 82%
    23:00 +10°C° 0.1 mm 2 mps 719 mmHg 88%
    Show more